When you browse on this site, cookies collect data to enhance your experience and personalize the content and advertising you see.
Visit our Privacy Policy to learn more. By continuing to use the site, you agree to this use of cookies and data.
  • En España
  • Lista de países
  • Para 7 días
  • Temperatura del agua
  • Mapa Satelital
  • El tiempo en el mapa
  • Informadores
  • user-avatar
    Iniciar sesión

    Tiempo cada hora Malanje

    Hoy, 19 Julio, Viernes

    Tiempo Temperatura Precipitaciones Viento Presión Humedad
    00:00 +19°C° 0 mm 1 mps 665 mmHg 29%
    01:00 +18°C° 0 mm 1 mps 665 mmHg 31%
    02:00 +16°C° 0 mm 1 mps 665 mmHg 33%
    03:00 +15°C° 0 mm 1 mps 665 mmHg 34%
    04:00 +14°C° 0 mm 1 mps 664 mmHg 36%
    05:00 +14°C° 0 mm 1 mps 665 mmHg 36%
    06:00 +14°C° 0 mm 1 mps 665 mmHg 36%
    07:00 +14°C° 0 mm 2 mps 666 mmHg 36%
    08:00 +18°C° 0 mm 2 mps 667 mmHg 29%
    09:00 +22°C° 0 mm 3 mps 667 mmHg 22%
    10:00 +27°C° 0 mm 4 mps 668 mmHg 15%
    11:00 +29°C° 0 mm 3 mps 668 mmHg 14%
    12:00 +31°C° 0 mm 3 mps 668 mmHg 12%
    13:00 +34°C° 0 mm 2 mps 667 mmHg 11%
    14:00 +34°C° 0 mm 2 mps 667 mmHg 10%
    15:00 +34°C° 0 mm 2 mps 666 mmHg 10%
    16:00 +34°C° 0 mm 2 mps 666 mmHg 10%
    17:00 +30°C° 0 mm 2 mps 665 mmHg 12%
    18:00 +26°C° 0 mm 1 mps 665 mmHg 14%
    19:00 +23°C° 0 mm 1 mps 664 mmHg 17%
    20:00 +22°C° 0 mm 1 mps 665 mmHg 18%
    21:00 +21°C° 0 mm 1 mps 665 mmHg 19%
    22:00 +20°C° 0 mm 1 mps 665 mmHg 19%
    23:00 +19°C° 0 mm 1 mps 665 mmHg 26%

    Mañana, 20 Julio, Sábado

    Tiempo Temperatura Precipitaciones Viento Presión Humedad
    00:00 +16°C° 0 mm 1 mps 665 mmHg 32%
    01:00 +15°C° 0 mm 1 mps 665 mmHg 38%
    02:00 +14°C° 0 mm 1 mps 665 mmHg 43%
    03:00 +14°C° 0 mm 1 mps 665 mmHg 47%
    04:00 +13°C° 0 mm 1 mps 665 mmHg 52%
    05:00 +13°C° 0 mm 1 mps 665 mmHg 48%
    06:00 +14°C° 0 mm 1 mps 666 mmHg 44%
    07:00 +14°C° 0 mm 1 mps 666 mmHg 40%
    08:00 +19°C° 0 mm 1 mps 667 mmHg 32%
    09:00 +24°C° 0 mm 2 mps 668 mmHg 25%
    10:00 +28°C° 0 mm 2 mps 669 mmHg 17%
    11:00 +30°C° 0 mm 2 mps 669 mmHg 14%
    12:00 +32°C° 0 mm 2 mps 668 mmHg 12%
    13:00 +35°C° 0 mm 2 mps 668 mmHg 9%
    14:00 +35°C° 0 mm 2 mps 667 mmHg 9%
    15:00 +35°C° 0 mm 2 mps 666 mmHg 9%
    16:00 +34°C° 0 mm 2 mps 666 mmHg 9%
    17:00 +30°C° 0 mm 1 mps 665 mmHg 11%
    18:00 +26°C° 0 mm 1 mps 665 mmHg 14%
    19:00 +23°C° 0 mm 1 mps 665 mmHg 17%
    20:00 +22°C° 0 mm 1 mps 665 mmHg 19%
    21:00 +21°C° 0 mm 1 mps 665 mmHg 21%
    22:00 +20°C° 0 mm 1 mps 665 mmHg 24%
    23:00 +18°C° 0 mm 1 mps 665 mmHg 37%

    Pasado mañana, 21 Julio, Domingo

    Tiempo Temperatura Precipitaciones Viento Presión Humedad
    00:00 +16°C° 0 mm 1 mps 665 mmHg 51%
    01:00 +15°C° 0 mm 1 mps 665 mmHg 64%
    02:00 +14°C° 0 mm 1 mps 664 mmHg 73%
    03:00 +14°C° 0 mm 1 mps 664 mmHg 81%
    04:00 +13°C° 0 mm 1 mps 664 mmHg 90%
    05:00 +13°C° 0 mm 1 mps 665 mmHg 88%
    06:00 +13°C° 0 mm 1 mps 666 mmHg 87%
    07:00 +14°C° 0 mm 1 mps 666 mmHg 85%
    08:00 +19°C° 0 mm 1 mps 667 mmHg 63%
    09:00 +24°C° 0 mm 1 mps 668 mmHg 41%
    10:00 +28°C° 0 mm 1 mps 669 mmHg 19%
    11:00 +31°C° 0 mm 1 mps 669 mmHg 16%
    12:00 +33°C° 0 mm 1 mps 668 mmHg 14%
    13:00 +35°C° 0 mm 1 mps 668 mmHg 11%
    14:00 +35°C° 0 mm 1 mps 667 mmHg 11%
    15:00 +34°C° 0 mm 1 mps 667 mmHg 11%
    16:00 +34°C° 0 mm 1 mps 666 mmHg 11%
    17:00 +31°C° 0 mm 1 mps 666 mmHg 14%
    18:00 +27°C° 0 mm 1 mps 665 mmHg 17%
    19:00 +24°C° 0 mm 1 mps 665 mmHg 20%
    20:00 +22°C° 0 mm 1 mps 665 mmHg 27%
    21:00 +20°C° 0 mm 2 mps 665 mmHg 34%
    22:00 +19°C° 0 mm 2 mps 666 mmHg 41%
    23:00 +18°C° 0 mm 2 mps 665 mmHg 52%

    22 Julio, Lunes

    Tiempo Temperatura Precipitaciones Viento Presión Humedad
    00:00 +17°C° 0 mm 2 mps 665 mmHg 63%
    01:00 +16°C° 0 mm 2 mps 665 mmHg 73%
    02:00 +15°C° 0 mm 2 mps 665 mmHg 81%
    03:00 +14°C° 0 mm 2 mps 664 mmHg 88%
    04:00 +14°C° 0 mm 2 mps 664 mmHg 96%
    05:00 +14°C° 0 mm 2 mps 665 mmHg 95%
    06:00 +14°C° 0 mm 2 mps 666 mmHg 93%
    07:00 +15°C° 0 mm 2 mps 666 mmHg 91%
    08:00 +19°C° 0 mm 2 mps 667 mmHg 72%
    09:00 +24°C° 0 mm 2 mps 668 mmHg 52%
    10:00 +28°C° 0 mm 1 mps 669 mmHg 32%
    11:00 +30°C° 0 mm 2 mps 668 mmHg 26%
    12:00 +34°C° 0 mm 2 mps 668 mmHg 19%
    13:00 +36°C° 0 mm 2 mps 667 mmHg 13%
    14:00 +35°C° 0 mm 1 mps 667 mmHg 12%
    15:00 +35°C° 0 mm 1 mps 666 mmHg 11%
    16:00 +35°C° 0 mm 1 mps 666 mmHg 11%
    17:00 +31°C° 0 mm 1 mps 665 mmHg 14%
    18:00 +28°C° 0 mm 1 mps 665 mmHg 18%
    19:00 +24°C° 0 mm 1 mps 665 mmHg 21%
    20:00 +23°C° 0 mm 1 mps 665 mmHg 36%
    21:00 +20°C° 0 mm 2 mps 665 mmHg 50%
    22:00 +18°C° 0 mm 2 mps 665 mmHg 65%
    23:00 +17°C° 0 mm 2 mps 665 mmHg 71%

    23 Julio, Martes

    Tiempo Temperatura Precipitaciones Viento Presión Humedad
    00:00 +16°C° 0 mm 2 mps 664 mmHg 77%
    01:00 +15°C° 0 mm 1 mps 664 mmHg 83%
    02:00 +14°C° 0 mm 1 mps 664 mmHg 87%
    03:00 +13°C° 0 mm 1 mps 664 mmHg 91%
    04:00 +13°C° 0 mm 1 mps 664 mmHg 95%
    05:00 +13°C° 0 mm 1 mps 664 mmHg 93%
    06:00 +14°C° 0 mm 1 mps 665 mmHg 91%
    07:00 +14°C° 0 mm 1 mps 665 mmHg 88%
    08:00 +20°C° 0 mm 1 mps 666 mmHg 67%
    09:00 +24°C° 0 mm 1 mps 667 mmHg 46%
    10:00 +29°C° 0 mm 2 mps 669 mmHg 26%
    11:00 +31°C° 0 mm 2 mps 668 mmHg 21%
    12:00 +34°C° 0 mm 2 mps 667 mmHg 17%
    13:00 +35°C° 0 mm 3 mps 667 mmHg 13%
    14:00 +35°C° 0 mm 2 mps 666 mmHg 13%
    15:00 +35°C° 0 mm 2 mps 666 mmHg 12%
    16:00 +35°C° 0 mm 2 mps 665 mmHg 12%
    17:00 +31°C° 0 mm 2 mps 665 mmHg 15%
    18:00 +28°C° 0 mm 2 mps 665 mmHg 18%
    19:00 +24°C° 0 mm 1 mps 664 mmHg 21%
    20:00 +23°C° 0 mm 1 mps 665 mmHg 25%
    21:00 +22°C° 0 mm 1 mps 665 mmHg 28%
    22:00 +20°C° 0 mm 1 mps 665 mmHg 32%
    23:00 +19°C° 0 mm 1 mps 664 mmHg 47%

    24 Julio, Miércoles

    Tiempo Temperatura Precipitaciones Viento Presión Humedad
    00:00 +16°C° 0 mm 1 mps 664 mmHg 62%
    01:00 +15°C° 0 mm 1 mps 663 mmHg 76%
    02:00 +15°C° 0 mm 1 mps 663 mmHg 80%
    03:00 +14°C° 0 mm 1 mps 663 mmHg 84%
    04:00 +14°C° 0 mm 1 mps 663 mmHg 87%
    05:00 +14°C° 0 mm 1 mps 664 mmHg 82%
    06:00 +15°C° 0 mm 1 mps 665 mmHg 76%
    07:00 +16°C° 0 mm 1 mps 665 mmHg 70%
    08:00 +21°C° 0 mm 1 mps 666 mmHg 54%
    09:00 +26°C° 0 mm 1 mps 667 mmHg 38%
    10:00 +30°C° 0 mm 2 mps 668 mmHg 22%
    11:00 +32°C° 0 mm 2 mps 668 mmHg 19%
    12:00 +34°C° 0 mm 2 mps 668 mmHg 16%
    13:00 +36°C° 0 mm 2 mps 667 mmHg 13%
    14:00 +36°C° 0 mm 3 mps 667 mmHg 13%
    15:00 +35°C° 0 mm 3 mps 666 mmHg 13%
    16:00 +35°C° 0 mm 3 mps 665 mmHg 13%
    17:00 +31°C° 0 mm 2 mps 665 mmHg 15%
    18:00 +27°C° 0 mm 2 mps 665 mmHg 18%
    19:00 +24°C° 0 mm 2 mps 664 mmHg 21%
    20:00 +23°C° 0 mm 2 mps 665 mmHg 25%
    21:00 +21°C° 0 mm 2 mps 665 mmHg 29%
    22:00 +20°C° 0 mm 2 mps 665 mmHg 33%
    23:00 +18°C° 0 mm 2 mps 665 mmHg 47%
    Mostrar más